#timestamp,LO_Frequency,Hit,StdDev 
1629018015.9,286047002.6,N
1629018035.4,286047001.8,N
1629018055.2,286047000.4,N
1629018075.1,286047000.9,N
1629018076.0,286047000.9,N
1629018095.8,286046997.6,N
1629018115.6,286046994.0,N
1629018135.5,286046993.7,N
1629018155.3,286046996.4,N
1629018175.1,286046996.0,N
1629018195.9,286046992.2,N
1629018215.7,286046994.5,N
1629018235.7,286046988.7,N
1629018255.5,286046988.9,N
1629018275.4,286046988.6,N
1629018295.2,286046990.7,N
1629018315.1,286046990.9,N
1629018316.0,286046990.9,N
1629018335.8,286046990.4,N
1629018355.6,286046991.2,N
1629018375.5,286046988.8,N
1629018395.3,286046990.0,N
1629018415.1,286046991.4,N
1629018435.9,286046990.1,N
1629018455.7,286046989.2,N
1629018475.6,286046985.6,N
1629018495.4,286046988.2,N
1629018515.2,286046982.4,Y
1629018535.1,286046985.8,P
1629018536.0,286046985.8,P
1629018555.8,286046983.8,P
1629018575.7,286046981.2,Y
1629018595.5,286046991.9,P
1629018615.3,286046992.7,P
1629018635.2,286046989.1,P
1629018655.9,286046994.4,N
1629018675.7,286046993.5,N
1629018695.6,286046995.9,N
1629018715.4,286046995.7,N
1629018735.3,286046993.3,N
1629018755.1,286046990.4,Y
1629018756.0,286046990.4,P
1629018775.8,286046998.5,N
1629018795.7,286046995.1,N
1629018815.5,286046997.3,N
1629018835.3,286046999.1,N
1629018855.2,286046996.3,N
1629018875.0,286046996.1,N
1629018875.9,286046996.1,N
1629018895.8,286046993.6,N
1629018915.6,286046987.4,Y
1629018935.4,286046989.4,P
1629018955.3,286046983.2,P
1629018975.1,286046980.1,P
1629018995.9,286046981.3,Y
1629019015.7,286046997.0,P
1629019035.5,286046995.1,N
1629019055.4,286046995.4,N
1629019075.2,286046998.4,N
1629019095.0,286046999.4,N
1629019095.9,286046999.4,N
1629019115.8,286046998.0,N
1629019135.6,286046991.6,N
1629019155.5,286046984.8,Y
1629019175.3,286046987.4,P
1629019195.1,286046988.2,N
1629019215.9,286046985.8,P
1629019235.7,286046986.0,Y
1629019255.5,286046996.1,P
1629019275.4,286046995.9,N
1629019295.2,286046993.4,N
1629019315.1,286046992.2,N
1629019316.0,286046992.2,Y
1629019335.8,286046995.2,P
1629019355.6,286046995.9,P
1629019375.5,286046992.3,P
1629019395.3,286046991.4,Y
1629019415.2,286046995.0,P
1629019435.9,286046997.0,P
1629019455.7,286046996.4,P
1629019475.6,286046992.8,Y
1629019495.4,286046993.9,P
1629019515.2,286046987.4,P
1629019535.1,286046984.2,P
1629019536.0,286046984.2,Y
1629019555.8,286046993.1,P
1629019575.7,286046992.8,P
1629019595.5,286046989.5,P
1629019615.3,286046989.1,Y
1629019635.2,286046998.5,P
1629019655.0,286047000.9,N
1629019655.9,286047000.9,N
1629019675.8,286047000.1,N
1629019695.6,286047002.0,N
1629019715.4,286047000.4,N
1629019735.3,286046998.7,N
1629019755.1,286046999.9,N
1629019775.8,286047000.3,N
1629019795.7,286046998.2,N
1629019815.5,286047000.8,N
1629019835.4,286047002.1,N
1629019855.2,286047003.6,N
1629019875.0,286047005.5,N
1629019875.9,286047005.5,N
1629019895.8,286047003.2,N
1629019915.6,286047003.8,N
1629019935.4,286047005.1,N
1629019955.3,286047007.3,N
1629019975.1,286047005.2,N
1629019995.9,286047005.2,N
1629020015.7,286047001.9,N
1629020035.5,286047000.9,N
1629020055.4,286046999.2,N
1629020075.2,286046998.7,N
1629020095.0,286046998.3,N
1629020095.9,286046998.3,N
1629020115.8,286046999.9,N
1629020135.6,286047001.6,N
1629020155.5,286047007.0,N
1629020175.3,286047006.9,N
1629020195.1,286047008.4,Y
1629020215.9,286047007.4,P
1629020235.7,286047009.2,P
1629020255.6,286047006.6,N
1629020275.4,286047007.4,N
1629020295.2,286047006.5,N
1629020315.1,286047004.9,N
1629020316.0,286047004.9,N
1629020335.8,286047006.4,Y
1629020355.7,286046995.4,P
1629020375.5,286046996.0,N
1629020395.3,286046995.9,N
1629020415.2,286046992.6,N
1629020435.0,286046992.5,N
1629020435.9,286046992.5,N
1629020455.7,286046992.6,N
1629020475.6,286046990.7,N
1629020495.4,286046988.2,N
1629020515.3,286046984.5,Y
1629020535.1,286046987.5,P
1629020555.8,286046984.9,P
1629020575.7,286046981.2,P
1629020595.5,286046982.0,Y
1629020615.4,286046994.6,P
1629020635.2,286046988.9,N
1629020655.0,286046991.6,N
1629020655.9,286046991.6,N
1629020675.8,286046991.3,Y
1629020695.6,286046996.5,P
1629020715.5,286046997.8,N
1629020735.3,286046995.5,N
1629020755.1,286046999.6,N
1629020775.9,286046999.5,N
1629020795.7,286046999.0,N
1629020815.5,286046995.2,N
1629020835.4,286046997.1,N
1629020855.2,286046997.9,N
1629020875.1,286046997.1,N
1629020876.0,286046997.1,N
1629020895.8,286046997.5,N
1629020915.6,286046997.6,N
1629020935.5,286046996.9,N
1629020955.3,286046997.0,N
1629020975.1,286046997.7,N
1629020995.9,286046995.4,N
1629021015.7,286046990.6,Y
1629021035.6,286046992.9,P
1629021055.4,286046992.2,P
1629021075.2,286046990.7,P
1629021095.1,286046989.5,Y
1629021096.0,286046989.5,P
1629021115.8,286046990.9,P
1629021135.6,286046986.6,P
1629021155.5,286046980.0,Y
1629021175.3,286046984.2,P
1629021195.2,286046982.6,P
1629021215.9,286046988.3,P
1629021235.7,286046989.2,Y
1629021255.6,286047004.2,P
1629021275.4,286047002.3,N
1629021295.3,286047001.4,N
1629021315.1,286047001.5,N
1629021316.0,286047001.5,N
1629021335.8,286047003.4,N
1629021355.7,286047004.4,N
1629021375.5,286047002.3,N
1629021395.3,286047001.0,N
1629021415.2,286046996.5,N
1629021435.0,286046994.5,N
1629021435.9,286046994.5,N
1629021455.8,286046995.5,N
1629021475.6,286046996.1,N
1629021495.4,286046993.6,N
1629021515.3,286046993.5,N
1629021535.1,286046991.7,N
1629021555.8,286046990.1,N
1629021575.7,286046988.9,N
1629021595.5,286046989.8,N
